Showing default

AEROCUBE 16A, 59290

Orbit data source: Space-Track

AEROCUBE 16A, 59290 is a payload satellite owned by AERO (US) in LEO that was launched on Thu, 21 Mar 2024 UTC via an ELECTRON launch vehicle from the Wallops Island (WLPIS). Payload-class satellites include a variety of spacecraft equipped with specific instruments for various scientific and technological missions. These include communications satellites like Starlink; space stations such as the ISS; scientific satellites like the Hubble; Earth observation satellites from companies like Planet Labs, Umbra, and HawkEye 360; GPS; miniature CubeSats for education and research; and military/defense satellites.

Loading next visibility...
Identifier
59290, 2024-053C
Orbit
LEO
Country
Flag of USUS
Related business
Manufacturer
AERO
Mission
Operational Defense Technology
Bus & Motor
CUBESAT 6U, Unknown motor
Mass
~10 kg wet, ~10 kg dry
Launch date (UTC)
2024-03-21 (2 years ago)
Launch vehicle
ELECTRON
Launch site
Wallops Island (WLPIS)
Object type
Payload
Rocket body
Debris
Shape & HBR
Box + 1 Pan, 2.5 m
Radar Cross Section
0.322 m², Medium (>0.1 m² and < 1m²)

Expand to show TLE details & history
Last TLE update: 2 days ago

TLE from 2 days ago
0 AEROCUBE 16A
1 59290U 24053C   26171.40456756  .00013907  00000-0  30881-3 0  9996
2 59290  49.9890 308.3667 0003089 330.9453  29.1338 15.43925888121605
Epoch: 2026-06-20T09:42Z
TLE epoch observation values (Epoch: 2026-06-20T09:42:34.637Z)
Latitude
-0.00001°
Longitude
-105.89731°
Altitude
433.255 km
Speed
7.654 km/s
True Right ascension
20h 33m 28s
True Declination
0° 00' 00"
Sunlit
Object was in full shadow at epoch
Visualization orbit readout
Latitude
Unknown
Longitude
Unknown
Altitude
Unknown
Speed
Unknown
Apparent Right ascension
Unknown
Apparent Declination
Unknown
Sunlit
N/A
Visualization observer readout
Local Sidereal Time
21:25:06
Azimuth
Unknown
Elevation
Unknown
Doppler factor
Unknown
Orbital elements
Apogee altitude
437.421 km
Perigee altitude
433.212 km
Semi-major axis
6,813.453 km
Eccentricity
0.00031
Inclination
49.989°
RAAN
308.3667°
Arg. of periapsis
330.9453°
True anomaly
29.15104°
Mean anomaly
29.1338°
Eccentric anomaly
29.14242°
Mean motion
3.85916 °/min
Orbital period
93.28 mins
BSTAR
0.00030881
Loading maneuver chart data...
Computing Atmospheric mass density...
Loading historical data...
Loading historical data...
Loading historical data...
Loading historical data...
Loading historical data...
Loading historical data...
Loading historical data...

Documentation

Showing up to 5 results
|